Voltar ao catálogo

ORION 3

AtivoComunicaçõesMEO
NORAD 25727·PAYLOAD·🇺🇸 United States

Lançado May 5, 1999 de Cape Canaveral Space Force Station

Loading…

Próximas Passagens (próximas 24 horas)

TLE

AtualizadoSource: Space-Track

Época: Sep 14, 2026, 13:34 UTC

1 25727U 99024A   26257.56588381  .00000096  00000-0  61674-3 0  9995
2 25727  19.8274  82.1371 0041310 199.3509 160.5248 10.39162336 78110

Acompanhe ORION 3 em tempo real com AllMySat

Download on the App Store